This demonstration page uses our WeatherBlox Daily Observations layout. Learn more.

Left ArrowRight Arrow

40.92501, -98.34201

Hourly Observations for February 10, 2022

Temp ( °F °C ) Dew Point ( °F °C ) Humidity (%) Winds ( mph kmh ) Pressure ( in mb ) Visibility ( mi km ) Precip ( " mm )
12:53 am 00:53 Clear 26 -3.3 21 -6.1 81 81 NW 8 13 30.16 1021 10 16 0.00 0.00
1:53 am 01:53 Clear 27 -2.8 23 -5 85 85 WNW 7 11 30.17 1022 10 16 0.00 0.00
2:53 am 02:53 Clear 26 -3.3 22 -5.6 84 84 WNW 8 13 30.19 1022 10 16 0.00 0.00
3:53 am 03:53 Clear 23 -5 20 -6.7 88 88 WNW 6 9 30.18 1022 10 16 0.00 0.00
4:53 am 04:53 Clear 23 -5 20 -6.7 88 88 W 9 15 30.16 1021 10 16 0.00 0.00
5:53 am 05:53 Clear 24 -4.4 20 -6.7 84 84 W 9 15 30.16 1021 10 16 0.00 0.00
6:53 am 06:53 Clear 23 -5 20 -6.7 88 88 W 7 11 30.17 1022 10 16 0.00 0.00
7:53 am 07:53 Sunny 24 -4.4 20 -6.7 84 84 WSW 8 13 30.16 1021 10 16 0.00 0.00
8:53 am 08:53 Sunny 28 -2.2 23 -5 81 81 SW 8 13 30.13 1020 10 16 0.00 0.00
9:53 am 09:53 Sunny 35 1.7 28 -2.2 76 76 SSW 8 13 30.07 1018 10 16 0.00 0.00
10:53 am 10:53 Mostly Cloudy 40 4.4 28 -2.2 63 63 SW 16 26 30.04 1017 10 16 0.00 0.00
11:53 am 11:53 Sunny 47 8.3 29 -1.7 50 50 SW 18 30 29.98 1015 10 16 0.00 0.00
12:53 pm 12:53 Sunny 50 10 30 -1.1 46 46 SW 26 43 29.92 1013 10 16 0.00 0.00
1:53 pm 13:53 Sunny 56 13.3 30 -1.1 37 37 SW 23 37 29.85 1011 10 16 0.00 0.00
2:53 pm 14:53 Mostly Sunny 58 14.4 31 -0.6 36 36 WSW 26 43 29.79 1009 10 16 0.00 0.00
3:53 pm 15:53 Mostly Sunny 60 15.6 31 -0.6 33 33 WSW 23 37 29.75 1008 10 16 0.00 0.00
4:53 pm 16:53 Sunny 60 15.6 30 -1.1 32 32 SW 15 24 29.70 1006 10 16 0.00 0.00
5:53 pm 17:53 Sunny 58 14.4 29 -1.7 33 33 SW 14 22 29.69 1005 10 16 0.00 0.00
6:53 pm 18:53 Partly Cloudy 55 12.8 28 -2.2 35 35 SW 8 13 29.68 1005 10 16 0.00 0.00
7:53 pm 19:53 Mostly Cloudy 56 13.3 27 -2.8 33 33 WSW 13 20 29.67 1005 10 16 0.00 0.00
8:53 pm 20:53 Cloudy 56 13.3 27 -2.8 33 33 WSW 13 20 29.64 1004 10 16 0.00 0.00
9:53 pm 21:53 Cloudy 54 12.2 28 -2.2 37 37 WSW 15 24 29.62 1003 10 16 0.00 0.00
10:53 pm 22:53 Mostly Cloudy 53 11.7 27 -2.8 37 37 W 9 15 29.63 1004 10 16 0.00 0.00
11:53 pm 23:53 Clear 50 10 28 -2.2 43 43 NNE 17 28 29.65 1004 10 16 0.00 0.00

Powered by AerisWeather